This is the latest recevied weather packets stored in our database for station/object OK3MS-5. If no packets are shown the sender has not sent any weather packets the latest 10 day(s).
| Time | Temp. | Humidity | Pressure | Rain* | Wind** | Luminosity | Snow |
|---|---|---|---|---|---|---|---|
| 1787681403 | 20° C | 56% | 1013 hPa | 0 mm | - | 1 W/m² | - |
| 1787681106 | 20° C | 56% | 1013 hPa | 0 mm | - | 1 W/m² | - |
| 1787680803 | 20.56° C | 55% | 1012.8 hPa | 0 mm | - | 2 W/m² | - |
| 1787680507 | 20.56° C | 55% | 1012.7 hPa | 0 mm | - | 2 W/m² | - |
| 1787680210 | 20.56° C | 55% | 1012.7 hPa | 0 mm | - | 3 W/m² | - |
| 1787679903 | 20.56° C | 54% | 1012.5 hPa | 0 mm | - | 4 W/m² | - |
| 1787679610 | 21.11° C | 54% | 1012.5 hPa | 0 mm | - | 5 W/m² | - |
| 1787679303 | 21.11° C | 54% | 1012.4 hPa | 0 mm | - | 6 W/m² | - |
| 1787679005 | 21.11° C | 54% | 1012.3 hPa | 0 mm | - | 8 W/m² | - |
| 1787678703 | 21.11° C | 54% | 1012.2 hPa | 0 mm | - | 11 W/m² | - |
| 1787678403 | 21.67° C | 54% | 1012.1 hPa | 0 mm | - | 15 W/m² | - |
| 1787678106 | 21.67° C | 54% | 1012 hPa | 0 mm | - | 18 W/m² | - |
| 1787677804 | 21.67° C | 53% | 1012.1 hPa | 0 mm | - | 22 W/m² | - |
| 1787677505 | 21.67° C | 53% | 1011.9 hPa | 0 mm | - | 25 W/m² | - |
| 1787677204 | 21.67° C | 53% | 1011.9 hPa | 0 mm | - | 24 W/m² | - |
| 1787676910 | 21.67° C | 53% | 1011.9 hPa | 0 mm | - | 25 W/m² | - |
| 1787676606 | 22.22° C | 53% | 1011.8 hPa | 0 mm | - | 23 W/m² | - |
| 1787676309 | 22.22° C | 52% | 1011.8 hPa | 0 mm | - | 28 W/m² | - |
| 1787676004 | 22.22° C | 52% | 1011.6 hPa | 0 mm | - | 39 W/m² | - |
| 1787675708 | 22.22° C | 52% | 1011.6 hPa | 0 mm | - | 47 W/m² | - |
| 1787675403 | 22.22° C | 51% | 1011.6 hPa | 0 mm | - | 58 W/m² | - |
| 1787675107 | 22.22° C | 51% | 1011.6 hPa | 0 mm | - | 71 W/m² | - |
| 1787674804 | 22.78° C | 51% | 1011.4 hPa | 0 mm | - | 89 W/m² | - |
| 1787674506 | 22.78° C | 51% | 1011.3 hPa | 0 mm | - | 116 W/m² | - |
| 1787674203 | 22.78° C | 50% | 1011.4 hPa | 0 mm | - | 132 W/m² | - |
* Rain latest hour (hover to see other rain measurements)
** Current wind speed in m/s (hover to see current wind gust speed)